When you browse on this site, cookies collect data to enhance your experience and personalize the content and advertising you see.
Visit our Privacy Policy to learn more. By continuing to use the site, you agree to this use of cookies and data.
  • In Hungary
  • List of Countries
  • For 7 days
  • Water Temperature
  • Weather Map
  • News
  • Weather Widgets
  • user-avatar
    Login

    Hourly Weather Doronub

    Today, 15 October, Tuesday

    Time Temperature Precipitation Wind Pressure Humidity
    00:00 +8°C° 0 mm 2 mps 609 mmHg 38%
    01:00 +8°C° 0 mm 2 mps 609 mmHg 35%
    02:00 +8°C° 0 mm 2 mps 608 mmHg 33%
    03:00 +8°C° 0 mm 3 mps 608 mmHg 30%
    04:00 +8°C° 0 mm 3 mps 608 mmHg 29%
    05:00 +8°C° 0 mm 3 mps 608 mmHg 29%
    06:00 +8°C° 0 mm 3 mps 607 mmHg 28%
    07:00 +10°C° 0 mm 2 mps 608 mmHg 27%
    08:00 +13°C° 0 mm 2 mps 609 mmHg 26%
    09:00 +16°C° 0 mm 1 mps 610 mmHg 25%
    10:00 +17°C° 0 mm 2 mps 610 mmHg 24%
    11:00 +17°C° 0 mm 2 mps 610 mmHg 24%
    12:00 +18°C° 0 mm 2 mps 610 mmHg 24%
    13:00 +18°C° 0 mm 2 mps 610 mmHg 26%
    14:00 +18°C° 0 mm 2 mps 610 mmHg 27%
    15:00 +19°C° 0 mm 1 mps 609 mmHg 29%
    16:00 +15°C° 0 mm 1 mps 608 mmHg 37%
    17:00 +13°C° 0 mm 1 mps 607 mmHg 45%
    18:00 +11°C° 0 mm 1 mps 606 mmHg 53%
    19:00 +10°C° 0 mm 1 mps 606 mmHg 51%
    20:00 +10°C° 0 mm 1 mps 606 mmHg 50%
    21:00 +10°C° 0 mm 1 mps 606 mmHg 49%
    22:00 +10°C° 0 mm 1 mps 606 mmHg 48%
    23:00 +10°C° 0 mm 1 mps 606 mmHg 47%

    Tomorrow, 16 October, Wednesday

    Time Temperature Precipitation Wind Pressure Humidity
    00:00 +9°C° 0 mm 1 mps 605 mmHg 46%
    01:00 +9°C° 0 mm 1 mps 605 mmHg 45%
    02:00 +9°C° 0 mm 1 mps 605 mmHg 44%
    03:00 +9°C° 0 mm 1 mps 605 mmHg 43%
    04:00 +9°C° 0 mm 1 mps 605 mmHg 42%
    05:00 +9°C° 0 mm 1 mps 605 mmHg 41%
    06:00 +8°C° 0 mm 1 mps 605 mmHg 40%
    07:00 +11°C° 0 mm 1 mps 606 mmHg 36%
    08:00 +13°C° 0 mm 1 mps 607 mmHg 32%
    09:00 +14°C° 0 mm 0 mps 609 mmHg 27%
    10:00 +16°C° 0 mm 1 mps 609 mmHg 28%
    11:00 +18°C° 0 mm 1 mps 609 mmHg 28%
    12:00 +17°C° 0 mm 2 mps 609 mmHg 29%
    13:00 +17°C° 0 mm 2 mps 609 mmHg 31%
    14:00 +17°C° 0 mm 2 mps 608 mmHg 34%
    15:00 +17°C° 0 mm 2 mps 608 mmHg 37%
    16:00 +14°C° 0 mm 1 mps 607 mmHg 46%
    17:00 +12°C° 0 mm 1 mps 607 mmHg 55%
    18:00 +9°C° 0 mm 0 mps 606 mmHg 64%
    19:00 +10°C° 0 mm 1 mps 606 mmHg 62%
    20:00 +9°C° 0 mm 1 mps 606 mmHg 61%
    21:00 +9°C° 0 mm 1 mps 606 mmHg 59%
    22:00 +9°C° 0 mm 1 mps 606 mmHg 54%
    23:00 +8°C° 0 mm 2 mps 606 mmHg 49%

    Day after tomorrow, 17 October, Thursday

    Time Temperature Precipitation Wind Pressure Humidity
    00:00 +7°C° 0 mm 2 mps 606 mmHg 45%
    01:00 +7°C° 0 mm 2 mps 606 mmHg 42%
    02:00 +7°C° 0 mm 2 mps 606 mmHg 39%
    03:00 +7°C° 0 mm 2 mps 606 mmHg 36%
    04:00 +7°C° 0 mm 2 mps 606 mmHg 36%
    05:00 +7°C° 0 mm 2 mps 606 mmHg 37%
    06:00 +7°C° 0 mm 2 mps 606 mmHg 37%
    07:00 +9°C° 0 mm 2 mps 607 mmHg 35%
    08:00 +12°C° 0 mm 2 mps 608 mmHg 34%
    09:00 +14°C° 0 mm 1 mps 609 mmHg 33%
    10:00 +15°C° 0 mm 2 mps 609 mmHg 33%
    11:00 +16°C° 0 mm 2 mps 609 mmHg 32%
    12:00 +17°C° 0 mm 2 mps 609 mmHg 32%
    13:00 +16°C° 0 mm 2 mps 609 mmHg 34%
    14:00 +16°C° 0 mm 2 mps 609 mmHg 36%
    15:00 +16°C° 0 mm 2 mps 608 mmHg 38%
    16:00 +14°C° 0 mm 2 mps 608 mmHg 47%
    17:00 +12°C° 0 mm 2 mps 607 mmHg 56%
    18:00 +9°C° 0 mm 2 mps 606 mmHg 65%
    19:00 +9°C° 0 mm 2 mps 606 mmHg 60%
    20:00 +8°C° 0 mm 2 mps 606 mmHg 55%
    21:00 +8°C° 0 mm 2 mps 606 mmHg 51%
    22:00 +8°C° 0 mm 2 mps 605 mmHg 49%
    23:00 +8°C° 0 mm 3 mps 605 mmHg 48%

    18 October, Friday

    Time Temperature Precipitation Wind Pressure Humidity
    00:00 +8°C° 0 mm 3 mps 605 mmHg 46%
    01:00 +8°C° 0 mm 3 mps 605 mmHg 45%
    02:00 +8°C° 0 mm 3 mps 604 mmHg 44%
    03:00 +7°C° 0 mm 3 mps 604 mmHg 43%
    04:00 +7°C° 0 mm 2 mps 604 mmHg 43%
    05:00 +7°C° 0 mm 2 mps 604 mmHg 43%
    06:00 +7°C° 0 mm 2 mps 604 mmHg 44%
    07:00 +10°C° 0 mm 2 mps 605 mmHg 39%
    08:00 +13°C° 0 mm 1 mps 606 mmHg 34%
    09:00 +15°C° 0 mm 1 mps 607 mmHg 29%
    10:00 +16°C° 0 mm 1 mps 607 mmHg 28%
    11:00 +18°C° 0 mm 1 mps 607 mmHg 28%
    12:00 +17°C° 0 mm 2 mps 607 mmHg 27%
    13:00 +17°C° 0 mm 2 mps 607 mmHg 30%
    14:00 +17°C° 0 mm 2 mps 607 mmHg 33%
    15:00 +16°C° 0 mm 2 mps 606 mmHg 35%
    16:00 +14°C° 0 mm 1 mps 606 mmHg 43%
    17:00 +12°C° 0 mm 1 mps 605 mmHg 51%
    18:00 +9°C° 0 mm 0 mps 604 mmHg 59%
    19:00 +10°C° 0 mm 1 mps 604 mmHg 59%
    20:00 +10°C° 0 mm 1 mps 604 mmHg 58%
    21:00 +10°C° 0 mm 1 mps 604 mmHg 57%
    22:00 +9°C° 0 mm 1 mps 604 mmHg 57%
    23:00 +9°C° 0 mm 1 mps 604 mmHg 57%

    19 October, Saturday

    Time Temperature Precipitation Wind Pressure Humidity
    00:00 +9°C° 0 mm 1 mps 604 mmHg 56%
    01:00 +9°C° 0 mm 1 mps 604 mmHg 56%
    02:00 +9°C° 0 mm 1 mps 604 mmHg 56%
    03:00 +8°C° 0 mm 1 mps 604 mmHg 56%
    04:00 +8°C° 0 mm 1 mps 604 mmHg 55%
    05:00 +8°C° 0 mm 1 mps 604 mmHg 55%
    06:00 +8°C° 0 mm 1 mps 604 mmHg 54%
    07:00 +10°C° 0 mm 1 mps 605 mmHg 48%
    08:00 +12°C° 0 mm 1 mps 607 mmHg 42%
    09:00 +13°C° 0 mm 0 mps 608 mmHg 36%
    10:00 +15°C° 0 mm 1 mps 608 mmHg 36%
    11:00 +16°C° 0 mm 1 mps 608 mmHg 36%
    12:00 +16°C° 0 mm 2 mps 609 mmHg 37%
    13:00 +16°C° 0 mm 2 mps 608 mmHg 40%
    14:00 +16°C° 0 mm 2 mps 608 mmHg 42%
    15:00 +15°C° 0 mm 1 mps 607 mmHg 45%
    16:00 +14°C° 0 mm 1 mps 607 mmHg 54%
    17:00 +12°C° 0 mm 1 mps 606 mmHg 64%
    18:00 +9°C° 0 mm 0 mps 605 mmHg 73%
    19:00 +9°C° 0 mm 0 mps 606 mmHg 74%
    20:00 +10°C° 0 mm 1 mps 606 mmHg 74%
    21:00 +10°C° 0 mm 1 mps 606 mmHg 75%
    22:00 +9°C° 0 mm 1 mps 606 mmHg 75%
    23:00 +9°C° 0 mm 1 mps 606 mmHg 76%

    20 October, Sunday

    Time Temperature Precipitation Wind Pressure Humidity
    00:00 +8°C° 0 mm 2 mps 606 mmHg 77%
    01:00 +8°C° 0 mm 2 mps 606 mmHg 77%
    02:00 +8°C° 0 mm 2 mps 605 mmHg 77%
    03:00 +8°C° 0 mm 2 mps 605 mmHg 77%
    04:00 +8°C° 0 mm 2 mps 605 mmHg 77%
    05:00 +8°C° 0 mm 2 mps 605 mmHg 77%
    06:00 +8°C° 0 mm 2 mps 606 mmHg 76%
    07:00 +9°C° 0 mm 2 mps 606 mmHg 73%
    08:00 +11°C° 0 mm 1 mps 607 mmHg 70%
    09:00 +12°C° 0 mm 1 mps 607 mmHg 67%
    10:00 +12°C° 0.1 mm 1 mps 607 mmHg 69%
    11:00 +13°C° 0.1 mm 1 mps 607 mmHg 71%
    12:00 +13°C° 0.1 mm 1 mps 607 mmHg 74%
    13:00 +13°C° 0.1 mm 1 mps 607 mmHg 73%
    14:00 +13°C° 0.1 mm 1 mps 607 mmHg 72%
    15:00 +13°C° 0.1 mm 1 mps 607 mmHg 71%
    16:00 +12°C° 0.2 mm 1 mps 606 mmHg 78%
    17:00 +11°C° 0.2 mm 1 mps 606 mmHg 85%
    18:00 +8°C° 0.2 mm 0 mps 605 mmHg 92%
    19:00 +8°C° 0 mm 0 mps 605 mmHg 92%
    20:00 +8°C° 0 mm 0 mps 606 mmHg 92%
    21:00 +8°C° 0 mm 0 mps 606 mmHg 92%
    22:00 +7°C° 0 mm 0 mps 606 mmHg 93%
    23:00 +7°C° 0 mm 0 mps 606 mmHg 93%
    Show more